Regional Weather Roundup
Issued by NWS

Home | Current Version | Previous Version | Graphics & Text | Print | Product List | Glossary On
Versions: 1 2 3 4 5 6 7 8 9 10 11 12 13 14 15 16 17 18 19 20 21 22 23 24 25 26 27 28 29 30 31 32 33 34 35 36 37 38 39 40 41 42 43 44 45 46 47 48 49 50
000
ASUS43 KMPX 031301
RWRMN
WEATHER ROUNDUP FOR MINNESOTA
NATIONAL WEATHER SERVICE TWIN CITIES/CHANHASSEN MN
800 AM CDT FRI JUL 03 2015


NOTE: "FAIR" INDICATES FEW OR NO CLOUDS BELOW 12,000 FEET WITH NO
SIGNIFICANT WEATHER AND/OR OBSTRUCTIONS TO VISIBILITY. N/A MEANS
CURRENT SKY AND/OR WEATHER CONDITIONS ARE NOT AVAILABLE.

MNZ060>063-068>070-031400-
   Twin Cities Metro

CITY           SKY/WX    TMP DP  RH WIND       PRES   REMARKS
TWIN CITIES    MOSUNNY   63  54  72 SW3       29.99R
ST PAUL        SUNNY     63  58  83 CALM      29.98S
CRYSTAL        SUNNY     65  56  72 W6        29.97S
BLAINE         SUNNY     64  59  82 CALM      29.98S
LAKEVILLE      SUNNY     61  55  82 W5        30.00R
EDEN PRAIRIE   SUNNY     59  55  87 SW6       29.98S
SOUTH ST PAUL  SUNNY     63  55  75 W5        29.98S
LAKE ELMO      FAIR      63  59  88 CALM      29.99F
$$
MNZ001>005-007-008-013>017-022>024-027-028-031400-
   Northwest Minnesota

CITY           SKY/WX    TMP DP  RH WIND       PRES   REMARKS
BEMIDJI        CLOUDY    64  61  88 W8        29.93S
HALLOCK        FOG       63  61  94 CALM      29.92S VSB 1
ROSEAU         HAZE      64  59  82 W6        29.92R VSB 1/2
WARROAD        SUNNY     63  59  88 W7        29.91R FOG
THIEF RVR FALL CLOUDY    63  63 100 CALM      29.94S VSB 1/4
CROOKSTON      FOG       63  63 100 CALM      29.94F VSB 1/2
FOSSTON        CLOUDY    63  59  88 CALM      29.95S FOG
DETROIT LAKES  SUNNY     64  61  88 W5        29.96S
MOORHEAD       SUNNY     63  61  94 CALM      29.95S FOG
PARK RAPIDS    CLOUDY    63  58  83 W7        29.95R
MAHNOMEN       CLOUDY    60  59  96 CALM      29.95S
$$
MNZ006-009>011-018-025>026-031400-
   North Central Minnesota

CITY           SKY/WX    TMP DP  RH WIND       PRES   REMARKS
BAUDETTE       MOSUNNY   65  61  87 W9        29.89R FOG
FLAG ISLAND    SUNNY     64  61  88 NW9       29.88R FOG
INTL FALLS     CLOUDY    64  61  90 W7        29.88R FOG
WASKISH        MOSUNNY   66  63  88 W5        29.91S FOG
BIG FORK       CLOUDY    64  57  77 CALM      29.91S
LONGVILLE      MOSUNNY   64  57  77 SW3       29.93S
GRAND RAPIDS   MOSUNNY   64  55  72 W5        29.92F
CRANE LAKE     MOSUNNY   63  59  88 W1        29.89R
ORR            MOSUNNY   64  55  72 CALM      29.87S
COOK           CLOUDY    64  55  72 W7        29.90S
WALKER         CLOUDY    64  59  85 SW6       29.93S
$$
MNZ012-019>021-037-031400-
   Northeast Minnesota

CITY           SKY/WX    TMP DP  RH WIND       PRES   REMARKS
DULUTH         PTSUNNY   62  55  77 W10       29.91F
ELY            CLOUDY    63  55  77 W5        29.89S
HIBBING        PTSUNNY   62  55  77 SW3       29.90F
DULUTH HARBOR  CLOUDY    64  57  77 SW13      29.90F
TWO HARBORS    PTSUNNY   68  57  68 W7        29.88S
SILVER BAY     PTSUNNY   64  57  77 CALM      29.86F
GRAND MARAIS     N/A     54  52  93 W7        29.84S
G MARAIS ARPRT PTSUNNY   63  55  77 W7        29.87F
$$
MNZ029>031-032-039>041-046>048-054>057-064-031400-
   West Central Minnesota

CITY           SKY/WX    TMP DP  RH WIND       PRES   REMARKS
FERGUS FALLS   SUNNY     63  61  94 S3        29.96F
WHEATON        SUNNY     61  59  94 CALM      29.97F
MORRIS         SUNNY     63  59  88 CALM      29.97S FOG
ALEXANDRIA     CLOUDY    63  58  83 W6        29.99S
ELBOW LAKE     FAIR      61  58  88 S5        29.97F
WADENA         SUNNY     63  57  82 W5        29.95S
GLENWOOD       SUNNY     63  57  82 W6        29.99S
APPLETON       SUNNY     63  57  82 SW3       29.98S
BENSON         SUNNY     59  55  88 CALM      29.98F
ORTONVILLE     SUNNY     63  57  82 SW3       29.97F
MADISON          N/A     61  57  88 CALM      29.99S FOG
WILLMAR        FAIR      59  55  88 CALM      30.01S
$$
MNZ033>034-036-042>043-049>051-058-059-031400-
   Central Minnesota

CITY           SKY/WX    TMP DP  RH WIND       PRES   REMARKS
ST CLOUD       SUNNY     59  56  89 S3        29.97S
SAUK CENTRE    FAIR      60  57  90 W5        29.98S
PAYNESVILLE    SUNNY     58  56  96 SW5       29.98F
AITKIN         MOSUNNY   64  55  72 SW5       29.93S
PINE RIVER     MOSUNNY   63  55  77 CALM      29.97S
BRAINERD       MOSUNNY   62  54  74 SW7       29.95S
STAPLES        MOSUNNY   63  55  77 SW6       29.95F
LONG PRAIRIE   CLOUDY    59  54  82 SW5       29.98S
LITTLE FALLS   MOSUNNY   57  52  82 CALM      29.96F
LITCHFIELD     SUNNY     63  57  82 W6        30.00S
BUFFALO        SUNNY     60  54  80 SW3       29.99S
MAPLE LAKE     SUNNY     62  57  85 SW5       29.99S
$$
MNZ037-044-045-052-053-031400-
   East Central Minnesota

CITY           SKY/WX    TMP DP  RH WIND       PRES   REMARKS
PRINCETON      SUNNY     61  57  88 CALM      29.97S
MORA           MOSUNNY   55  52  88 CALM      29.98S
CAMBRIDGE      MOSUNNY   63  54  72 CALM      29.95S
RUSH CITY      MOSUNNY   62  55  78 CALM      29.97S
MOOSE LAKE     PTSUNNY   55  55 100 CALM      29.92F
HINCKLEY       FAIR      59  55  88 SW6       29.96F
CLOQUET        PTSUNNY   63  52  67 W7        29.93S
MCGREGOR       MOSUNNY   63  55  77 SW3       29.94S
$$
MNZ071>073-080-081-089-090-097-098-031400-
   Southwest Minnesota

CITY           SKY/WX    TMP DP  RH WIND       PRES   REMARKS
MONTEVIDEO     SUNNY     63  57  82 CALM      30.00F
GRANITE FALLS  SUNNY     57  55  92 CALM      30.01S FOG
CANBY          SUNNY     62  58  86 W6        30.00S
MARSHALL       SUNNY     59  54  82 W3        30.00S
REDWOOD FALLS  SUNNY     61  53  75 W5        30.00S
OLIVIA         SUNNY     55  52  88 SW3       29.99S
PIPESTONE      SUNNY     57  55  94 CALM      30.02S FOG
WINDOM         SUNNY     59  55  88 CALM      30.02S
WORTHINGTON    SUNNY     59  55  88 W5        30.03R
JACKSON        SUNNY     61  59  94 CALM      30.02S FOG
TRACY          SUNNY     61  57  87 SW6       30.02R
SLAYTON        SUNNY     59  58  94 CALM      30.03S
$$
MNZ065>067-074>077-082>085-091>093-031400-
   South Central Minnesota

CITY           SKY/WX    TMP DP  RH WIND       PRES   REMARKS
MANKATO        SUNNY     59  54  82 W3        30.01R
NEW ULM        SUNNY     55  54  94 CALM      30.00S
ST JAMES       SUNNY     61  57  88 CALM      30.02S
FAIRMONT       SUNNY     61  52  72 CALM      30.00F
GLENCOE        SUNNY     59  55  86 SW3       30.00R
FARIBAULT      SUNNY     59  55  88 CALM      30.01R
OWATONNA       SUNNY     61  55  82 CALM      30.01S
WASECA         SUNNY     55  54  94 CALM      30.03R
ALBERT LEA     SUNNY     63  55  77 CALM      30.01S
$$
MNZ078>079-086>088-094>096-031400-
   Southeast Minnesota

CITY           SKY/WX    TMP DP  RH WIND       PRES   REMARKS
ROCHESTER      SUNNY     61  55  81 W7        30.02R
RED WING       SUNNY     61  57  88 CALM      29.98S
DODGE CENTER   SUNNY     61  55  82 W5        30.01S
WINONA         SUNNY     59  57  94 CALM      30.00R
AUSTIN         SUNNY     63  55  77 CALM      30.01S
PRESTON        SUNNY     60  55  83 W3        30.01S
$$
ABBREVIATIONS USED IN REMARKS
   TC - TEMPERATURES IN CELSIUS
  WCI - WIND CHILL INDEX
   HX - HEAT INDEX
  VSB - VISIBILITY
$$



USA.gov is the U.S. government's official web portal to all federal, state and local government web resources and services.